Precipitable_Water
0.61 0.61 0.60 0.57 0.52 0.53 0.58 0.60 0.58 0.51 0.46 0.42 0.41 0.42 0.37 0.39 0.42 0.44 0.38 0.42 0.30 0.23 0.28 0.32 0.33 0.25 0.26 0.22 0.15 0.19 0.20 0.23 0.20 0.16 0.17 0.21 0.24 0.29 0.31 0.32 0.29 0.25 0.25 0.23 0.27 0.23 0.19 0.38 0.34 0.26 0.33 0.42 0.42 0.42
0.62 0.61 0.58 0.53 0.56 0.58 0.57 0.53 0.50 0.47 0.47 0.47 0.44 0.39 0.34 0.36 0.43 0.45 0.34 0.42 0.39 0.27 0.26 0.37 0.34 0.33 0.29 0.30 0.24 0.25 0.26 0.27 0.27 0.20 0.20 0.25 0.25 0.30 0.31 0.25 0.36 0.24 0.27 0.26 0.26 0.26 0.37 0.39 0.36 0.41 0.42 0.40 0.41 0.41
0.61 0.60 0.58 0.57 0.58 0.58 0.57 0.55 0.54 0.51 0.46 0.43 0.41 0.40 0.36 0.34 0.42 0.42 0.37 0.38 0.34 0.27 0.27 0.28 0.30 0.39 0.40 0.37 0.39 0.22 0.31 0.34 0.28 0.32 0.27 0.27 0.24 0.32 0.26 0.29 0.32 0.37 0.37 0.26 0.28 0.32 0.34 0.37 0.40 0.42 0.43 0.41 0.42 0.43
0.61 0.60 0.58 0.56 0.54 0.53 0.51 0.48 0.47 0.44 0.42 0.42 0.44 0.44 0.39 0.35 0.39 0.42 0.35 0.41 0.37 0.31 0.22 0.28 0.43 0.37 0.43 0.42 0.39 0.39 0.34 0.37 0.35 0.32 0.24 0.26 0.23 0.34 0.30 0.34 0.31 0.35 0.36 0.29 0.28 0.32 0.34 0.36 0.39 0.40 0.40 0.42 0.40 0.41
0.61 0.61 0.59 0.57 0.55 0.53 0.50 0.48 0.47 0.46 0.46 0.44 0.45 0.44 0.40 0.34 0.35 0.39 0.39 0.43 0.44 0.34 0.23 0.26 0.35 0.39 0.40 0.39 0.37 0.39 0.37 0.33 0.30 0.24 0.23 0.22 0.29 0.30 0.34 0.37 0.31 0.37 0.33 0.29 0.26 0.35 0.34 0.34 0.39 0.40 0.38 0.38 0.39 0.38
0.60 0.60 0.58 0.59 0.57 0.54 0.53 0.48 0.46 0.45 0.44 0.43 0.42 0.44 0.42 0.36 0.31 0.28 0.20 0.39 0.45 0.46 0.29 0.20 0.34 0.35 0.40 0.39 0.37 0.36 0.37 0.37 0.33 0.29 0.25 0.25 0.34 0.31 0.27 0.26 0.36 0.39 0.41 0.42 0.35 0.41 0.39 0.40 0.41 0.40 0.36 0.37 0.38 0.37
0.58 0.59 0.60 0.59 0.58 0.56 0.53 0.47 0.45 0.42 0.41 0.41 0.43 0.43 0.40 0.35 0.33 0.26 0.26 0.43 0.51 0.50 0.30 0.22 0.24 0.38 0.44 0.40 0.37 0.37 0.40 0.37 0.36 0.31 0.25 0.24 0.27 0.34 0.32 0.26 0.35 0.38 0.39 0.41 0.42 0.41 0.36 0.38 0.33 0.36 0.35 0.35 0.36 0.37
0.56 0.58 0.58 0.58 0.58 0.57 0.54 0.47 0.43 0.42 0.43 0.42 0.41 0.44 0.41 0.33 0.37 0.33 0.46 0.53 0.53 0.40 0.34 0.22 0.26 0.33 0.43 0.33 0.29 0.39 0.32 0.34 0.31 0.27 0.27 0.24 0.29 0.35 0.27 0.34 0.36 0.36 0.37 0.38 0.40 0.38 0.35 0.34 0.33 0.32 0.33 0.33 0.32 0.32
0.53 0.54 0.56 0.56 0.56 0.55 0.54 0.49 0.44 0.44 0.43 0.42 0.44 0.42 0.36 0.27 0.25 0.37 0.53 0.54 0.51 0.40 0.25 0.25 0.21 0.23 0.42 0.36 0.37 0.37 0.36 0.25 0.34 0.28 0.26 0.30 0.29 0.25 0.32 0.32 0.32 0.33 0.32 0.32 0.33 0.33 0.32 0.30 0.31 0.33 0.33 0.32 0.31 0.30
0.52 0.53 0.53 0.54 0.52 0.52 0.50 0.47 0.44 0.45 0.46 0.46 0.37 0.26 0.18 0.22 0.39 0.50 0.42 0.34 0.34 0.35 0.33 0.24 0.31 0.25 0.35 0.34 0.30 0.29 0.31 0.26 0.25 0.30 0.33 0.29 0.27 0.35 0.36 0.35 0.34 0.34 0.34 0.35 0.30 0.28 0.28 0.30 0.31 0.31 0.30 0.29 0.28 0.27
0.51 0.52 0.52 0.52 0.51 0.50 0.49 0.46 0.44 0.45 0.45 0.36 0.26 0.26 0.36 0.39 0.34 0.32 0.26 0.25 0.27 0.23 0.28 0.27 0.28 0.26 0.39 0.30 0.28 0.31 0.28 0.29 0.23 0.29 0.26 0.24 0.22 0.27 0.33 0.33 0.34 0.34 0.34 0.33 0.34 0.36 0.36 0.35 0.32 0.30 0.28 0.27 0.24 0.21
0.48 0.48 0.48 0.47 0.47 0.46 0.44 0.42 0.43 0.38 0.34 0.32 0.37 0.44 0.40 0.33 0.29 0.24 0.22 0.24 0.22 0.19 0.26 0.26 0.28 0.30 0.36 0.44 0.32 0.34 0.27 0.26 0.20 0.34 0.26 0.20 0.25 0.31 0.32 0.33 0.33 0.34 0.35 0.35 0.35 0.33 0.33 0.32 0.29 0.25 0.22 0.20 0.19 0.19
0.47 0.46 0.44 0.44 0.44 0.43 0.41 0.40 0.41 0.42 0.40 0.40 0.36 0.31 0.28 0.27 0.20 0.17 0.14 0.17 0.19 0.24 0.29 0.29 0.28 0.32 0.37 0.41 0.34 0.30 0.22 0.19 0.34 0.25 0.21 0.24 0.30 0.32 0.33 0.33 0.33 0.34 0.34 0.33 0.32 0.31 0.28 0.25 0.23 0.20 0.18 0.18 0.18 0.17
0.46 0.45 0.44 0.42 0.41 0.40 0.39 0.41 0.43 0.43 0.36 0.28 0.25 0.20 0.21 0.18 0.20 0.19 0.18 0.19 0.24 0.27 0.29 0.31 0.31 0.31 0.36 0.30 0.28 0.21 0.24 0.28 0.20 0.18 0.20 0.27 0.31 0.32 0.33 0.33 0.32 0.31 0.31 0.28 0.25 0.22 0.20 0.18 0.18 0.18 0.18 0.18 0.17 0.16
0.44 0.45 0.44 0.42 0.40 0.40 0.40 0.45 0.45 0.42 0.35 0.27 0.28 0.19 0.20 0.27 0.28 0.31 0.35 0.32 0.33 0.35 0.32 0.31 0.30 0.29 0.28 0.25 0.24 0.25 0.23 0.19 0.21 0.22 0.28 0.33 0.34 0.33 0.32 0.32 0.31 0.29 0.24 0.19 0.18 0.18 0.18 0.17 0.17 0.17 0.18 0.17 0.17 0.15
0.42 0.44 0.42 0.43 0.41 0.39 0.43 0.44 0.40 0.37 0.31 0.28 0.27 0.25 0.28 0.28 0.27 0.31 0.35 0.33 0.38 0.36 0.34 0.32 0.27 0.24 0.22 0.22 0.21 0.20 0.22 0.21 0.26 0.30 0.33 0.33 0.32 0.32 0.32 0.31 0.26 0.20 0.19 0.18 0.18 0.18 0.18 0.18 0.17 0.17 0.17 0.17 0.15 0.15
0.43 0.37 0.43 0.45 0.42 0.39 0.38 0.34 0.32 0.27 0.25 0.25 0.26 0.34 0.31 0.29 0.31 0.33 0.37 0.38 0.41 0.32 0.27 0.29 0.21 0.20 0.25 0.20 0.20 0.27 0.24 0.29 0.30 0.31 0.33 0.32 0.31 0.31 0.30 0.21 0.20 0.20 0.19 0.18 0.18 0.18 0.18 0.19 0.19 0.17 0.16 0.17 0.17 0.16
0.36 0.42 0.46 0.46 0.43 0.40 0.36 0.33 0.27 0.24 0.21 0.25 0.26 0.31 0.35 0.36 0.35 0.36 0.37 0.41 0.36 0.33 0.33 0.27 0.32 0.23 0.19 0.18 0.19 0.26 0.30 0.32 0.33 0.32 0.32 0.31 0.31 0.28 0.20 0.19 0.20 0.19 0.18 0.18 0.18 0.18 0.17 0.17 0.17 0.17 0.18 0.18 0.18 0.16
0.43 0.44 0.44 0.40 0.36 0.32 0.27 0.27 0.29 0.21 0.23 0.28 0.31 0.35 0.36 0.37 0.40 0.39 0.38 0.39 0.41 0.40 0.36 0.32 0.25 0.21 0.22 0.27 0.28 0.30 0.32 0.31 0.29 0.29 0.30 0.30 0.29 0.20 0.20 0.20 0.19 0.19 0.18 0.18 0.17 0.17 0.18 0.18 0.17 0.18 0.17 0.18 0.16 0.16
0.40 0.40 0.40 0.38 0.38 0.29 0.23 0.24 0.31 0.26 0.20 0.26 0.33 0.33 0.35 0.35 0.35 0.35 0.35 0.35 0.36 0.35 0.29 0.27 0.25 0.27 0.28 0.31 0.33 0.32 0.31 0.31 0.29 0.27 0.27 0.27 0.22 0.19 0.19 0.19 0.19 0.19 0.18 0.17 0.18 0.18 0.18 0.19 0.20 0.19 0.18 0.17 0.16 0.15
0.42 0.41 0.40 0.39 0.35 0.33 0.28 0.24 0.25 0.29 0.29 0.28 0.33 0.33 0.33 0.34 0.31 0.30 0.30 0.36 0.32 0.29 0.26 0.28 0.29 0.31 0.34 0.35 0.35 0.35 0.33 0.32 0.29 0.27 0.25 0.21 0.20 0.19 0.19 0.19 0.20 0.19 0.17 0.17 0.16 0.17 0.18 0.17 0.18 0.18 0.18 0.17 0.16 0.15
0.38 0.42 0.37 0.37 0.32 0.34 0.32 0.31 0.29 0.32 0.30 0.30 0.31 0.33 0.30 0.28 0.27 0.29 0.33 0.28 0.27 0.29 0.30 0.29 0.30 0.30 0.30 0.30 0.32 0.33 0.33 0.32 0.29 0.27 0.26 0.23 0.17 0.17 0.18 0.19 0.19 0.18 0.18 0.17 0.18 0.17 0.18 0.18 0.18 0.17 0.15 0.14 0.13 0.13
0.38 0.38 0.34 0.33 0.28 0.27 0.26 0.34 0.28 0.29 0.25 0.28 0.32 0.28 0.28 0.28 0.29 0.33 0.25 0.27 0.27 0.30 0.32 0.32 0.32 0.32 0.30 0.31 0.31 0.31 0.32 0.31 0.29 0.28 0.25 0.22 0.19 0.18 0.19 0.18 0.19 0.17 0.16 0.16 0.17 0.17 0.16 0.16 0.16 0.15 0.14 0.13 0.12 0.11
0.37 0.30 0.25 0.24 0.24 0.22 0.29 0.27 0.30 0.27 0.26 0.25 0.24 0.22 0.23 0.24 0.29 0.24 0.21 0.23 0.27 0.30 0.30 0.31 0.31 0.29 0.29 0.29 0.27 0.29 0.32 0.33 0.32 0.30 0.28 0.23 0.18 0.18 0.19 0.18 0.18 0.17 0.17 0.16 0.16 0.16 0.15 0.15 0.15 0.14 0.13 0.11 0.10 0.10
0.23 0.22 0.24 0.20 0.28 0.22 0.20 0.21 0.23 0.22 0.19 0.21 0.21 0.21 0.23 0.26 0.21 0.20 0.20 0.22 0.25 0.26 0.28 0.29 0.29 0.29 0.27 0.27 0.28 0.30 0.33 0.32 0.30 0.29 0.28 0.24 0.19 0.17 0.17 0.16 0.15 0.15 0.15 0.14 0.14 0.14 0.13 0.14 0.13 0.12 0.11 0.09 0.09 0.09
0.17 0.21 0.19 0.21 0.22 0.21 0.20 0.17 0.17 0.17 0.19 0.19 0.21 0.24 0.24 0.21 0.18 0.16 0.20 0.23 0.26 0.27 0.28 0.28 0.27 0.26 0.26 0.28 0.27 0.29 0.31 0.33 0.32 0.28 0.25 0.22 0.18 0.15 0.13 0.12 0.12 0.13 0.16 0.16 0.14 0.11 0.11 0.11 0.11 0.10 0.10 0.10 0.09 0.09
0.20 0.20 0.22 0.27 0.26 0.25 0.24 0.24 0.23 0.20 0.18 0.17 0.20 0.20 0.20 0.17 0.16 0.19 0.24 0.28 0.28 0.31 0.33 0.32 0.30 0.28 0.27 0.28 0.30 0.32 0.33 0.33 0.31 0.28 0.26 0.22 0.18 0.16 0.15 0.13 0.13 0.15 0.16 0.14 0.12 0.11 0.11 0.10 0.10 0.09 0.09 0.09 0.09 0.09
0.26 0.27 0.23 0.25 0.24 0.26 0.22 0.23 0.23 0.22 0.23 0.27 0.25 0.21 0.19 0.18 0.18 0.22 0.25 0.30 0.34 0.35 0.34 0.33 0.33 0.31 0.30 0.30 0.31 0.32 0.32 0.32 0.31 0.27 0.22 0.17 0.13 0.13 0.14 0.15 0.15 0.14 0.12 0.12 0.12 0.12 0.11 0.10 0.09 0.09 0.09 0.09 0.09 0.10
0.27 0.30 0.30 0.26 0.27 0.27 0.26 0.25 0.23 0.24 0.27 0.26 0.22 0.21 0.22 0.25 0.27 0.27 0.29 0.33 0.35 0.33 0.31 0.30 0.30 0.32 0.31 0.32 0.32 0.32 0.32 0.30 0.25 0.19 0.13 0.10 0.10 0.11 0.13 0.12 0.13 0.13 0.13 0.13 0.13 0.13 0.12 0.11 0.10 0.10 0.10 0.09 0.09 0.09
0.25 0.31 0.26 0.26 0.24 0.24 0.26 0.29 0.28 0.29 0.30 0.29 0.28 0.26 0.26 0.27 0.29 0.32 0.32 0.32 0.31 0.30 0.30 0.31 0.31 0.30 0.29 0.29 0.29 0.30 0.30 0.27 0.22 0.17 0.12 0.11 0.12 0.13 0.12 0.12 0.12 0.12 0.13 0.12 0.12 0.11 0.11 0.10 0.10 0.10 0.09 0.08 0.07 0.06
0.30 0.29 0.27 0.26 0.25 0.27 0.28 0.30 0.31 0.31 0.30 0.28 0.28 0.26 0.25 0.26 0.28 0.30 0.31 0.31 0.31 0.31 0.30 0.29 0.29 0.30 0.30 0.29 0.29 0.27 0.24 0.24 0.21 0.18 0.16 0.15 0.13 0.12 0.12 0.12 0.13 0.12 0.12 0.11 0.11 0.10 0.10 0.10 0.09 0.08 0.07 0.06 0.05 0.05
0.29 0.27 0.25 0.23 0.24 0.28 0.30 0.28 0.27 0.26 0.26 0.25 0.25 0.25 0.25 0.24 0.23 0.26 0.29 0.30 0.29 0.29 0.30 0.28 0.25 0.26 0.29 0.30 0.29 0.26 0.24 0.21 0.18 0.15 0.13 0.12 0.11 0.11 0.12 0.12 0.12 0.12 0.11 0.10 0.11 0.10 0.10 0.08 0.07 0.06 0.05 0.05 0.05 0.05
0.26 0.26 0.25 0.24 0.24 0.24 0.26 0.26 0.24 0.24 0.25 0.23 0.23 0.24 0.25 0.23 0.22 0.26 0.30 0.32 0.30 0.29 0.29 0.27 0.25 0.26 0.27 0.26 0.24 0.21 0.18 0.16 0.14 0.12 0.11 0.11 0.12 0.12 0.11 0.11 0.11 0.10 0.11 0.10 0.10 0.09 0.07 0.07 0.05 0.05 0.05 0.05 0.05 0.05
Wind_Speed
24 25 25 26 25 26 27 28 28 27 26 25 25 24 22 21 17 14 12 10 10 9 9 8 8 8 9 10 10 14 10 9 7 5 5 7 6 5 3 1 1 2 2 2 2 3 1 9 1 1 2 1 0 2
25 25 25 25 26 27 27 27 26 25 25 24 24 22 21 20 17 14 11 9 9 8 8 9 11 11 10 10 10 11 8 7 5 4 5 7 6 6 4 3 0 3 3 3 2 3 2 2 4 3 1 1 2 1
27 26 24 26 26 26 26 26 25 25 25 24 24 21 19 19 16 13 11 9 8 6 7 6 7 8 8 10 9 7 7 6 6 5 6 8 8 6 5 4 4 1 1 3 3 2 2 2 2 2 1 1 2 3
28 27 26 26 25 25 25 25 24 24 24 24 22 21 18 17 17 14 10 8 7 6 5 7 6 6 7 7 7 7 7 6 6 5 6 8 9 8 7 6 4 4 4 3 3 3 2 0 1 2 3 2 2 3
29 29 26 26 25 24 24 23 23 23 24 23 21 20 17 15 16 14 10 7 6 5 5 6 8 7 8 7 5 5 4 3 3 4 5 8 9 7 7 6 4 3 4 4 4 3 3 3 2 2 2 3 3 4
27 28 28 26 25 24 23 22 22 22 22 22 20 18 17 15 14 13 9 8 8 6 5 5 5 5 4 3 4 3 4 3 3 3 5 7 9 8 8 8 6 3 2 4 4 4 3 4 4 4 4 3 4 5
26 26 27 26 26 24 23 22 21 21 20 22 20 18 15 14 13 10 9 7 8 7 4 4 4 4 3 2 3 2 2 2 3 3 3 5 8 8 7 8 9 6 5 4 4 4 3 4 4 5 4 5 6 7
26 26 26 26 25 25 24 22 20 20 20 21 19 17 14 13 12 9 8 6 8 5 4 4 4 3 3 2 2 2 2 2 2 2 3 3 5 7 6 7 7 6 6 6 6 4 4 5 5 6 7 8 9 10
26 26 26 25 25 26 24 22 20 20 20 20 18 15 13 12 11 9 8 6 6 5 5 5 5 5 3 2 2 1 2 2 2 2 3 3 4 4 5 6 5 4 5 6 6 5 6 7 8 9 10 11 11 12
27 27 27 27 26 25 24 22 21 21 21 19 15 12 11 12 12 10 7 7 6 7 7 7 6 5 4 3 3 1 1 2 2 3 3 3 4 5 4 4 4 4 5 6 7 7 8 8 9 10 10 11 11 11
29 28 27 27 26 25 24 22 22 22 20 15 13 11 12 13 11 9 8 8 7 8 8 8 9 6 6 4 4 3 2 2 2 2 3 4 4 5 5 3 2 2 3 3 4 5 6 7 8 8 8 9 9 9
30 29 28 27 26 25 24 23 23 21 18 16 13 13 14 11 10 9 10 8 8 9 8 8 7 9 7 6 3 3 2 2 3 3 3 3 4 6 5 3 1 0 0 0 1 2 3 3 4 4 5 6 7 9
30 29 28 27 26 25 24 23 23 22 20 17 13 13 12 11 11 11 10 8 8 7 9 8 6 7 7 6 4 2 2 4 3 3 4 4 6 5 4 3 1 1 0 1 2 2 2 2 4 5 6 8 9 11
30 29 28 26 26 25 24 24 24 21 19 16 14 14 13 11 11 10 11 10 10 8 9 8 6 6 7 6 4 3 4 3 3 4 5 5 6 4 3 2 1 1 1 1 1 1 2 4 6 8 9 11 13 15
31 29 28 26 25 25 25 26 23 21 19 16 13 13 13 12 11 10 9 10 9 10 9 8 6 6 7 5 5 4 4 4 6 5 4 4 4 3 2 2 2 1 1 1 1 2 5 7 9 11 13 15 16 18
32 29 27 27 26 25 26 24 22 20 18 15 13 12 13 12 11 11 9 9 10 11 9 7 7 6 8 6 7 7 6 6 5 4 3 3 3 3 3 3 2 2 1 1 3 6 8 10 12 14 16 17 19 20
31 26 30 28 27 25 23 21 21 20 19 17 14 11 12 14 12 12 10 9 11 11 9 8 7 8 7 8 8 7 6 5 4 3 3 2 3 3 3 4 3 1 2 4 6 9 11 13 15 17 19 21 22 23
27 30 30 28 26 22 19 19 19 19 19 19 14 10 11 13 12 13 11 10 11 11 9 8 7 8 9 8 8 8 5 4 3 3 3 2 3 4 4 3 2 3 5 7 9 12 14 16 18 20 22 23 24 25
31 31 30 27 23 18 16 19 19 18 21 19 15 10 13 13 13 12 12 11 11 9 8 7 6 8 9 8 7 7 6 5 5 4 4 4 4 5 5 3 4 5 8 10 12 15 17 19 21 23 23 24 25 28
31 29 28 25 21 15 14 17 19 17 20 20 14 11 14 14 13 12 12 12 10 9 7 7 7 7 7 8 7 7 7 6 5 4 4 5 5 5 5 5 6 8 10 12 15 17 20 22 24 24 25 26 28 31
28 27 26 22 18 14 14 18 18 18 19 18 14 12 14 14 13 12 11 11 10 9 8 8 7 7 6 6 6 7 6 6 6 6 6 6 6 6 6 7 9 11 13 15 18 20 22 24 25 26 28 29 31 33
25 25 22 21 16 13 14 19 19 19 17 15 13 14 14 14 13 12 12 11 9 10 9 9 8 8 8 7 7 7 7 6 5 5 6 6 7 7 8 9 11 13 16 18 20 22 24 26 28 30 31 32 33 34
25 23 20 18 12 14 16 22 19 18 15 14 15 13 13 12 11 10 10 11 11 11 10 10 10 8 9 8 7 7 8 8 7 6 6 7 7 8 9 11 13 15 17 20 22 24 26 29 30 31 32 33 34 35
23 19 17 15 14 14 19 20 20 18 16 14 13 12 11 10 10 9 10 10 11 12 12 12 11 10 10 10 9 9 9 8 8 7 7 8 8 9 10 12 15 17 20 22 24 27 28 30 31 32 33 34 36 36
17 15 13 13 12 14 17 20 19 17 16 14 12 11 11 9 9 10 10 10 11 12 13 13 13 12 11 11 11 10 10 9 9 8 9 9 9 10 12 15 17 19 22 24 27 28 30 32 32 33 34 35 36 37
13 12 14 13 13 13 15 16 19 20 18 15 14 13 11 11 11 11 10 9 10 11 13 14 14 13 12 13 12 11 11 10 9 9 10 11 11 13 15 16 19 22 24 26 28 30 31 32 33 34 35 36 37 37
10 9 11 11 11 12 10 12 14 14 15 16 15 14 13 13 13 12 11 11 11 11 12 14 14 14 14 13 12 11 11 10 10 10 10 11 13 15 17 19 21 23 26 28 29 31 32 33 34 35 36 37 38 38
7 7 7 10 11 11 11 12 12 13 13 12 13 14 14 13 12 12 12 11 11 10 11 11 13 14 14 13 12 11 10 10 9 10 10 12 14 16 18 20 22 24 27 28 30 31 32 33 35 36 37 38 38 37
4 2 5 7 10 10 12 13 14 14 14 14 14 14 13 13 13 13 12 11 11 10 11 11 12 13 13 12 11 11 11 11 11 12 13 14 16 18 20 21 23 26 27 29 31 32 33 35 36 37 37 37 36 34
7 5 4 6 8 9 10 12 14 15 14 15 14 13 13 13 13 13 13 12 12 11 11 11 13 13 13 12 11 11 11 12 13 13 14 16 17 18 20 22 24 26 29 30 31 32 34 36 37 38 38 36 34 32
9 9 7 5 7 8 9 9 10 10 11 12 13 13 13 13 12 10 11 12 12 11 11 11 11 12 13 12 12 12 11 12 13 14 15 15 17 19 21 23 25 28 30 30 32 33 35 36 37 36 35 33 31 30
8 8 7 6 6 7 8 8 8 8 9 10 10 10 10 10 10 10 10 12 12 11 11 11 11 12 12 12 12 12 12 12 12 13 14 16 18 20 22 24 27 28 30 31 33 34 35 35 35 33 31 30 29 29
8 8 7 7 7 7 8 7 7 8 8 8 9 11 10 10 11 11 10 11 12 11 10 10 10 10 10 11 11 11 11 11 12 13 14 16 18 20 23 26 27 28 30 32 33 34 34 33 32 30 28 28 28 28
Wind_Direction
172 172 174 175 174 173 175 177 178 179 180 181 182 183 185 187 190 195 199 208 216 226 244 258 273 284 295 303 307 311 311 311 302 281 255 230 216 230 230 36 194 118 187 180 208 170 228 350 303 233 174 162 80 9
172 171 172 172 173 173 171 174 175 177 179 180 180 182 185 188 190 195 200 209 219 226 247 260 269 275 276 292 303 310 298 295 285 265 247 226 216 219 233 214 135 149 132 149 134 159 162 32 70 82 134 187 306 319
171 169 168 169 169 171 174 176 178 178 179 181 180 181 184 188 190 194 197 208 217 235 256 263 272 290 280 285 292 299 295 290 283 253 231 218 212 212 216 205 205 206 225 172 187 160 131 90 63 52 39 308 317 331
174 173 169 167 167 168 169 170 173 175 176 178 180 183 184 187 190 194 198 207 217 232 246 260 287 283 288 290 282 283 285 287 274 258 231 215 214 218 217 222 211 238 252 207 183 182 172 155 319 309 327 325 341 339
175 173 171 170 169 169 169 171 173 174 176 177 178 181 183 185 191 195 201 212 221 234 247 263 286 284 284 271 269 277 277 283 275 255 232 223 220 221 222 210 216 243 241 239 230 209 231 227 245 296 320 322 310 310
169 173 176 175 172 170 170 169 170 173 176 179 179 179 181 184 187 193 207 221 223 230 251 274 281 287 284 252 264 261 263 275 266 256 244 232 221 216 215 216 218 220 234 240 214 224 228 222 250 279 288 306 314 315
173 173 174 174 174 172 171 170 170 171 173 175 176 177 179 183 185 194 204 214 217 216 244 267 281 272 241 253 282 266 273 274 267 258 249 228 221 211 217 220 217 224 223 212 212 212 238 265 282 284 280 298 308 311
170 170 171 173 175 175 172 171 170 171 172 173 174 177 180 182 188 196 202 215 197 210 237 255 252 243 239 259 247 227 259 287 276 249 253 221 213 205 211 195 200 214 219 229 238 250 236 257 280 290 285 289 296 298
178 177 174 173 171 172 172 171 171 171 170 170 172 174 182 191 195 199 195 193 203 217 233 239 228 223 218 219 208 258 267 277 262 251 229 192 198 195 206 198 198 216 240 234 239 249 261 273 277 283 286 289 289 291
179 178 178 176 174 174 175 175 174 172 171 171 178 188 196 197 191 187 210 216 221 227 233 231 221 226 207 213 223 242 277 241 248 250 201 203 202 194 198 206 217 239 258 258 253 260 268 273 277 285 288 288 290 292
183 182 181 182 182 182 182 181 180 178 177 185 190 195 189 181 194 210 215 221 221 232 226 226 219 217 220 206 216 224 247 262 265 236 192 205 198 198 190 190 220 242 266 280 263 270 272 273 280 285 290 292 294 296
184 183 182 183 183 183 183 184 183 184 186 188 185 182 181 196 208 213 215 221 222 225 217 206 215 213 211 201 215 238 252 279 242 193 177 179 179 166 166 163 166 214 185 330 306 294 292 295 298 303 304 304 304 305
182 182 182 183 183 185 186 186 185 184 183 186 191 195 200 207 211 211 207 214 210 210 203 201 201 196 198 206 217 240 264 230 189 176 179 177 164 162 165 163 147 154 131 331 318 315 317 318 314 310 310 309 307 308
182 182 182 183 184 185 186 186 185 186 188 192 197 199 207 208 215 208 206 206 211 201 190 186 192 195 196 198 217 227 215 175 179 176 187 171 165 168 181 203 209 260 290 330 12 354 335 325 320 316 312 308 308 308
183 182 183 184 185 186 185 183 184 187 191 197 202 206 208 212 205 203 205 202 204 192 189 192 197 198 197 200 210 196 175 187 179 182 181 179 183 194 202 198 193 212 175 143 327 330 324 320 318 314 311 310 309 308
182 181 186 183 183 182 181 185 189 192 196 198 202 206 209 204 201 197 195 193 193 187 186 192 196 194 199 194 179 181 167 177 176 172 177 176 188 204 191 190 182 172 184 296 315 319 320 319 317 315 313 312 311 310
177 182 179 178 177 177 180 188 192 194 196 198 197 206 208 204 198 192 192 193 186 181 190 189 189 196 178 180 186 177 178 174 174 180 185 193 196 190 185 175 186 204 287 310 316 318 319 319 318 317 314 314 313 312
175 172 171 171 173 177 185 189 190 194 198 195 194 196 193 192 187 187 188 185 181 186 190 196 188 187 185 188 199 194 193 200 203 203 219 222 199 191 187 193 228 284 304 311 316 318 320 321 319 318 315 314 315 315
168 168 169 172 174 178 185 190 191 194 193 188 191 196 189 186 186 188 188 184 183 186 187 192 193 198 201 200 198 204 207 221 222 232 234 221 210 200 204 238 279 300 308 313 317 319 320 321 321 321 319 319 317 317
164 167 169 171 174 177 178 183 185 185 184 185 188 188 185 184 185 185 186 187 189 191 194 196 199 200 203 213 219 218 217 213 213 226 235 231 216 216 235 268 292 304 312 316 318 320 322 322 322 321 320 319 319 318
162 167 168 172 176 178 180 176 178 176 174 179 181 179 180 184 186 187 188 190 192 201 203 209 211 213 212 216 210 206 210 214 230 239 234 224 225 237 260 281 296 307 314 317 319 320 323 323 323 323 322 321 320 320
162 165 167 169 172 181 177 176 171 169 171 176 180 179 184 188 188 193 195 199 210 217 216 215 219 218 214 217 219 222 221 227 231 239 232 229 237 255 274 289 300 307 311 315 318 321 322 323 324 324 323 323 323 322
158 161 164 171 170 169 173 169 169 169 169 170 170 172 180 187 197 198 211 217 226 226 223 220 219 219 217 221 223 226 226 226 237 241 241 243 255 268 287 299 304 311 317 319 320 322 322 323 324 324 324 324 324 324
157 160 162 170 175 175 172 174 174 174 173 175 179 185 192 199 206 215 225 232 230 223 222 220 223 226 230 229 235 234 234 235 239 248 248 253 265 279 290 303 310 314 316 319 322 323 323 324 325 325 325 325 324 324
153 167 168 177 173 172 180 185 188 187 189 194 194 203 209 213 218 223 229 239 232 228 226 227 228 230 233 234 234 233 232 235 243 248 260 261 272 285 297 306 312 316 318 321 323 324 324 325 325 325 325 326 326 325
158 168 169 172 173 173 180 185 195 201 206 210 216 219 221 224 230 232 230 236 234 231 230 228 229 232 235 231 228 230 238 241 246 258 270 271 277 288 296 303 310 315 319 321 322 324 325 325 326 326 326 327 327 326
157 164 177 182 183 186 186 194 195 199 207 212 217 218 222 227 233 235 239 246 247 241 233 230 229 228 224 223 226 231 238 245 254 262 271 281 290 296 298 303 309 314 318 321 322 324 325 326 326 326 326 326 326 327
151 163 174 185 190 195 196 197 195 199 206 210 207 217 225 233 238 241 242 248 242 236 229 229 226 220 216 219 224 230 238 244 253 265 278 291 298 303 307 311 314 317 320 322 324 325 326 326 327 327 327 327 327 327
173 202 203 209 210 215 218 216 218 222 224 223 223 229 233 235 237 240 241 236 230 228 225 220 216 211 211 217 226 235 242 249 260 274 284 290 298 304 309 313 316 319 321 323 325 325 326 327 328 329 329 329 329 328
223 233 240 225 220 220 222 222 222 226 227 224 225 230 233 234 237 238 233 228 225 222 216 213 208 210 216 222 232 246 255 260 269 278 285 291 298 303 309 314 317 320 322 324 325 325 327 327 328 329 330 330 331 331
226 232 236 236 225 220 215 213 213 213 218 219 221 221 221 221 222 219 216 214 208 206 206 211 216 220 225 232 240 246 259 270 277 284 291 297 301 307 311 315 319 322 323 324 326 327 328 329 330 331 332 333 334 334
230 222 217 219 222 213 201 208 211 209 210 208 211 208 210 208 211 213 212 207 206 212 219 223 227 233 234 237 243 255 263 270 280 288 295 301 306 310 315 318 321 323 324 326 327 328 329 330 331 333 334 335 336 337
221 218 217 217 210 211 210 200 204 202 201 203 208 201 205 203 208 213 213 212 214 218 223 225 226 229 234 240 246 255 266 276 286 294 301 307 311 315 319 321 323 325 326 327 328 329 331 332 334 335 337 338 339 340